Погода в Бузане

Россия / Астраханская область     46°42′36″N   47°58′38″E
темп.,
°C
ветер,
м/с
пор.,
м/с
влажн.,
%
обл.,
%
осадки,
мм/ч
давл.,
гПа
погр.,
м
16 апреля, пт
пт1601:00+14зсз510505 0.0 1011189
04:00+14зсз713654 0.0 1013381
07:00+13зсз713715 0.0 1013421
10:00+18сз911464 0.0 1015856
13:00+22сз1012333 0.0 10151802
16:00+24сз910301 0.0 10152344
19:00+21сз69364 0.0 1016504
22:00+17зсз48460 0.0 1017140
17 апреля, сб
сб1701:00+15сз47575 0.0 1018133
04:00+14сз3460100 0.0 101857
07:00+14с2260100 0.0 101840
10:00+20з114279 0.0 1019475
13:00+23зюз3326100 0.0 10192021
16:00+23зюз4324100 0.0 10192123
19:00+21сз4629100 0.0 1019300
22:00+19з2237100 0.0 102050
18 апреля, вс
вс1801:00+15ссз71068100 0.0 1020507
04:00+15с5867100 0.0 1020368
07:00+14ссз3470100 0.0 1021289
10:00+16с336496 0.0 1021529
13:00+19ссв3249100 0.0 10191397
16:00+20ссв324587 0.0 10181529
19:00+19ссв334678 0.0 1018620
22:00+17с4654100 0.0 1018226
19 апреля, пн
пн1901:00+16зсз3454100 0.1 1018199
04:00+14с3564100 1.0 1018277
07:00+14ссв2455100 0.0 1018158
10:00+16ссв1249100 0.0 1019360
13:00+18св2244100 0.0 10191016
16:00+20всв2139100 0.0 10171594
19:00+20всв2242100 0.0 1017461
22:00+16вюв475495 0.0 1017173
20 апреля, вт
вт2001:00+14юв3667100 0.0 1017144
04:00+13вюв4872100 0.0 1017176
07:00+13вюв51269100 0.0 1017461
10:00+18вюв111455100 0.0 10161015
13:00+18вюв121551100 0.0 10161102
16:00+19вюв12144698 0.0 10151133
19:00+17в91445100 0.0 1015893
22:00+16вюв111947100 0.0 1014752